Whiteman AFB, MO

7:19 PM CST on November 19, 2019 (GMT -0600)
Whiteman Air Force Base

Weather History for KSZL - May, 2019

Change the Weather History Date:

Thursday, May 16, 2019

  Actual Average Record
Temperature  
Mean Temperature 76 °F -  
Max Temperature 87 °F 73 °F 87 °F (2001)
Min Temperature 65 °F 54 °F 34 °F (2014)
Cooling Degree Days 11    
Growing Degree Days 26 (Base 50)    
Moisture  
Dew Point 65 °F    
Average Humidity 73    
Maximum Humidity 100    
Minimum Humidity 45    
Precipitation  
Precipitation 0.00 in - - ()
Sea Level Pressure  
Sea Level Pressure 29.80 in    
Wind  
Wind Speed 11 mph (SSW)    
Max Wind Speed 21 mph    
Max Gust Speed 31 mph    
Visibility 10 miles    
Events      
Averages and records for this station are not official NWS values.
T = Trace of Precipitation, MM = Missing Value Source: NWS Daily Summary

Daily Weather History Graph

Daily Weather History Graph

Search for Another Location

Airport or City:

Astronomy

May. 16, 2019 Rise Set
Actual Time 6:01 AM CDT 8:20 PM CDT
Civil Twilight 5:31 AM CDT 8:50 PM CDT
Nautical Twilight 4:54 AM CDT 9:27 PM CDT
Astronomical Twilight 4:14 AM CDT 10:08 PM CDT
Moon 6:02 PM CDT (5/16) 4:57 AM CDT (5/16)
Length of Visible Light 15h 18m
Length of Day
14h 18m
Waxing Gibbous, 94% of the Moon is Illuminated
May 16
Waxing Gibbous
May 18
Full
May 26
Last Quarter
Jun 3
New
Jun 10
First Quarter

Hourly Weather History & Observations

Time (CDT) Temp. Heat Index Dew Point Humidity Pressure Visibility Wind Dir Wind Speed Gust Speed Precip Events Conditions
12:56 AM 66.0 °F - 66.0 °F 100% 29.86 in 10.0 mi South 5.8 mph - N/A   Clear
1:56 AM 65.7 °F - 65.7 °F 100% 29.84 in 10.0 mi South 6.9 mph - N/A   Scattered Clouds
2:56 AM 65.3 °F - 65.3 °F 100% 29.83 in 10.0 mi SSW 6.9 mph - N/A   Scattered Clouds
3:56 AM 67.5 °F - 67.5 °F 100% 29.83 in 10.0 mi SSW 9.2 mph - N/A   Scattered Clouds
4:56 AM 66.0 °F - 66.0 °F 100% 29.83 in 10.0 mi SSW 8.1 mph - N/A   Clear
5:56 AM 67.1 °F - 67.1 °F 100% 29.83 in 10.0 mi SSW 8.1 mph - N/A   Scattered Clouds
6:56 AM 66.6 °F - 66.6 °F 100% 29.84 in 10.0 mi South 6.9 mph - N/A   Partly Cloudy
7:56 AM 70.7 °F - 67.6 °F 90% 29.84 in 10.0 mi SW 15.0 mph - N/A   Partly Cloudy
8:56 AM 74.3 °F - 66.6 °F 77% 29.84 in 10.0 mi SW 15.0 mph 21.9 mph N/A   Partly Cloudy
9:55 AM 78.8 °F - 62.6 °F 57% 29.83 in 7.0 mi South 16.1 mph 25.3 mph N/A   Partly Cloudy
10:56 AM 80.2 °F 82.6 °F 67.3 °F 64% 29.82 in 10.0 mi SW 19.6 mph 24.2 mph N/A   Partly Cloudy
11:56 AM 82.2 °F 84.6 °F 66.4 °F 59% 29.82 in 10.0 mi WSW 15.0 mph 21.9 mph N/A   Partly Cloudy
12:56 PM 84.4 °F 86.8 °F 66.4 °F 55% 29.80 in 10.0 mi SW 19.6 mph 24.2 mph N/A   Partly Cloudy
1:55 PM 85.5 °F 87.1 °F 65.1 °F 50% 29.79 in 10.0 mi SW 19.6 mph 31.1 mph N/A   Partly Cloudy
2:56 PM 86.5 °F 87.6 °F 63.3 °F 46% 29.78 in 10.0 mi SW 20.7 mph 27.6 mph N/A   Partly Cloudy
3:56 PM 87.3 °F 89.2 °F 65.1 °F 48% 29.76 in 10.0 mi SW 15.0 mph - N/A   Partly Cloudy
4:56 PM 87.3 °F 88.3 °F 63.3 °F 45% 29.75 in 10.0 mi SW 13.8 mph - N/A   Partly Cloudy
5:56 PM 85.5 °F 86.8 °F 64.6 °F 49% 29.74 in 10.0 mi SW 15.0 mph 21.9 mph N/A   Partly Cloudy
6:56 PM 83.3 °F 84.3 °F 63.1 °F 50% 29.74 in 10.0 mi SSW 15.0 mph - N/A   Clear
7:56 PM 77.9 °F - 66.4 °F 68% 29.74 in 10.0 mi South 11.5 mph - N/A   Partly Cloudy
9:56 PM 74.3 °F - 65.8 °F 75% 29.74 in 10.0 mi SSW 15.0 mph - N/A   Clear
10:56 PM 75.7 °F - 64.4 °F 68% 29.74 in 10.0 mi SSW 18.4 mph - N/A   Clear
11:56 PM 74.5 °F - 64.0 °F 70% 29.75 in 10.0 mi SSW 12.7 mph - N/A   Clear